Helicity
104 137 70 95 -11 -83 75 67 77 41 26 56 44 81 134 84 56 113 122 111 82 68 53 49 84 128 104 140 185 266 283 107 89 89 73 75 108 63 65 69 81 95 123 136
164 56 75 94 -42 -41 43 -39 66 69 126 78 69 68 146 142 137 185 145 107 104 91 66 54 77 66 122 140 158 169 252 321 113 82 71 102 99 69 67 53 59 91 94 96
129 114 153 6 90 35 1 33 12 97 63 89 35 194 90 107 145 186 126 137 115 98 87 72 50 46 54 99 161 139 196 228 332 120 82 134 101 57 55 48 39 50 76 95
107 219 57 39 118 73 70 14 14 -22 66 99 116 183 215 257 228 241 181 162 128 97 76 81 56 36 36 54 83 140 253 159 247 268 245 182 95 71 47 51 52 46 57 54
6 117 25 -1 176 139 105 73 47 50 28 82 122 166 398 321 228 155 157 120 97 73 75 73 72 48 42 46 84 110 153 407 201 291 271 255 194 78 66 45 48 57 60 58
22 72 81 -6 135 146 180 25 173 98 69 52 34 133 209 207 193 178 170 128 92 65 64 70 83 72 60 60 71 113 64 173 218 198 213 201 185 180 131 52 60 74 124 183
20 -2 3 -14 14 126 79 15 64 54 123 99 133 125 204 194 221 190 146 109 62 64 65 71 74 67 59 64 70 83 126 -2 55 83 136 145 138 133 148 124 206 277 255 231
33 1 7 -41 -31 4 45 94 -14 -15 55 143 80 54 173 230 212 122 67 72 70 46 51 57 68 68 58 74 65 63 87 114 66 95 27 66 76 98 140 128 252 302 315 320
24 39 -41 -32 -3 39 8 33 28 72 -3 14 91 52 27 11 17 53 56 56 54 42 32 32 50 64 64 69 81 67 64 88 119 49 83 85 106 127 126 188 262 302 324 364
29 13 -131 -11 44 72 13 18 63 151 22 29 17 16 29 22 39 40 31 43 44 46 43 34 36 43 55 54 62 78 91 109 118 140 89 136 133 124 148 171 202 284 348 423
86 45 73 37 18 70 32 35 50 137 103 42 48 60 43 39 40 33 47 39 38 36 34 34 26 28 44 55 52 51 69 79 95 113 156 192 225 250 249 288 222 233 277 287
123 53 63 39 21 67 53 29 46 67 124 120 98 80 69 65 48 47 46 51 49 42 33 29 24 22 38 50 57 40 49 68 86 89 114 151 204 267 344 280 299 313 320 311
4 -18 12 52 31 77 76 78 63 38 86 117 177 107 60 37 29 28 35 44 44 40 33 22 15 19 35 48 42 43 36 49 75 98 108 118 142 170 226 337 352 305 271 219
-6 -7 0 21 38 71 89 57 27 15 34 59 71 90 37 4 20 37 45 40 38 31 37 34 32 38 40 34 19 31 32 49 45 57 84 128 150 157 168 198 250 285 304 243
-1 -13 -32 -9 10 37 59 85 63 53 74 81 78 58 42 34 30 48 52 32 30 41 47 49 49 54 58 38 41 37 22 27 34 45 60 77 93 107 109 128 150 170 197 237
-10 -15 -4 15 37 40 49 67 72 67 90 75 82 62 46 60 64 70 80 66 59 63 58 50 59 59 66 41 32 35 45 48 31 22 29 52 75 85 100 119 138 154 165 148
22 17 13 7 13 26 38 47 54 64 75 88 77 83 71 56 63 76 77 70 64 63 62 69 58 52 62 67 48 41 48 62 66 60 66 70 69 80 83 88 96 100 113 96
43 29 35 32 13 16 26 37 44 50 61 81 92 66 78 81 75 71 80 70 52 66 87 82 85 68 84 104 82 78 77 82 91 100 94 96 92 86 84 86 92 110 117 132
85 64 41 15 23 29 27 27 30 30 51 45 43 44 55 58 65 68 72 91 107 103 106 101 102 106 108 130 103 111 119 128 135 137 135 135 135 126 118 117 119 124 131 142
60 64 61 53 47 36 19 25 38 26 43 53 39 50 51 58 66 63 55 75 106 111 125 147 127 126 134 154 142 140 147 157 167 176 170 158 149 150 149 149 139 138 143 150
40 47 45 38 41 49 52 53 51 57 58 80 73 63 62 69 86 120 111 95 136 157 158 171 184 167 155 148 153 162 171 184 196 194 174 157 146 146 151 153 153 151 152 156
22 25 31 34 32 32 32 36 45 52 65 76 78 83 63 68 61 79 114 145 120 162 152 155 174 187 176 163 170 186 194 194 185 171 161 150 149 155 159 163 166 166 167 171
18 18 21 23 30 30 25 32 37 50 58 69 79 88 74 76 98 113 99 125 130 156 148 163 178 187 187 159 172 190 195 194 184 180 174 169 172 172 167 168 171 170 164 159
30 32 30 24 14 31 53 60 54 57 51 55 79 97 121 89 80 99 90 99 113 131 153 166 164 193 174 152 171 182 185 187 192 192 191 203 195 180 164 160 171 171 159 158
23 7 10 17 16 45 41 48 21 36 53 81 89 93 111 116 130 109 106 101 126 116 118 150 169 172 149 155 175 194 198 188 182 188 195 191 178 170 164 156 150 151 143 138
65 76 77 72 70 74 75 76 81 86 83 82 85 88 85 80 75 74 78 94 105 115 121 123 119 125 135 139 143 149 152 163 170 172 161 162 158 160 158 145 132 128 125 125
60 56 65 73 83 87 90 89 89 89 86 88 85 77 74 67 63 65 71 70 73 80 86 92 100 111 104 107 112 122 135 146 153 141 139 134 131 125 118 117 117 115 109 101
Wind_Speed
58 61 53 45 46 62 60 60 76 70 67 44 40 41 36 27 22 21 23 28 31 34 37 39 42 42 38 37 39 42 42 34 30 33 30 27 26 22 18 14 7 9 7 1
60 48 53 48 37 49 54 80 69 69 74 58 33 74 24 31 29 22 19 23 30 34 37 39 42 43 41 40 41 41 41 42 42 33 34 32 33 24 17 15 9 4 12 8
56 51 49 43 36 37 41 44 75 68 61 61 47 52 20 24 19 13 17 25 31 35 39 42 42 43 44 43 43 40 40 41 47 38 35 37 39 30 23 19 13 3 6 8
47 42 40 31 31 30 35 37 42 59 65 61 23 13 16 14 18 22 26 29 32 37 39 43 43 44 42 43 43 41 40 42 46 47 40 43 46 39 28 23 20 20 13 6
38 41 34 33 40 40 38 39 39 48 48 27 17 20 23 21 24 26 28 30 33 37 41 43 45 45 45 44 45 43 42 46 49 53 48 46 45 45 37 28 29 25 23 16
42 37 34 34 44 47 46 41 51 54 50 16 19 29 30 26 26 26 30 34 36 40 41 43 46 47 46 47 47 48 46 45 44 49 48 49 48 51 47 32 32 30 27 29
41 39 39 44 45 44 34 45 55 41 16 16 12 18 18 22 26 29 32 37 38 39 41 44 47 47 46 48 49 51 50 41 39 39 44 47 52 52 49 31 18 21 27 32
41 40 40 52 41 33 46 50 46 25 22 16 14 16 22 25 29 30 33 36 39 39 41 45 46 47 46 48 50 51 51 50 49 48 44 42 44 46 43 23 23 23 28 32
46 54 52 48 45 46 46 44 36 31 20 19 17 19 19 22 25 28 32 35 38 38 40 43 45 47 47 48 49 48 46 45 44 43 44 43 42 44 44 36 27 31 30 32
59 52 53 50 48 47 45 42 39 34 28 24 18 19 20 26 28 30 32 36 39 40 42 44 46 47 46 46 45 44 43 43 42 42 39 38 38 37 37 33 27 25 26 28
61 55 54 48 50 49 45 38 34 32 28 25 21 24 25 27 29 30 34 37 40 41 43 45 45 45 46 45 43 40 38 37 37 37 36 34 29 32 30 31 29 26 25 20
50 47 46 49 50 49 44 39 35 33 29 26 28 29 30 33 35 35 37 39 41 42 43 44 43 43 45 44 41 38 36 35 34 33 32 31 28 27 26 20 18 17 17 17
40 47 43 49 44 47 42 39 36 34 34 34 33 32 33 34 36 37 38 41 42 43 43 43 43 42 43 43 40 37 35 34 33 31 29 27 26 23 21 26 26 23 19 15
41 45 42 44 45 46 43 41 37 34 34 34 34 35 35 35 37 41 42 43 42 42 42 43 42 41 42 40 38 36 36 34 33 31 30 29 27 25 24 23 22 23 24 21
44 44 46 48 46 45 43 42 40 38 39 37 36 35 37 37 38 42 43 42 41 42 42 42 42 41 42 40 38 36 34 34 33 31 30 30 28 27 25 25 24 23 23 25
50 48 49 48 48 47 45 44 42 42 42 40 39 37 39 39 38 40 43 43 42 43 43 42 42 41 41 39 37 35 34 33 32 30 30 29 29 29 28 28 27 26 25 24
51 49 49 48 47 47 45 44 44 45 44 43 42 42 41 40 39 40 41 41 41 42 42 43 42 42 41 40 36 34 32 32 30 30 30 29 29 29 29 29 28 29 30 29
44 44 45 46 46 46 43 43 44 45 46 46 43 41 40 40 40 40 41 41 38 41 44 44 44 41 41 41 37 34 32 30 29 28 28 28 28 27 27 27 26 26 27 30
43 44 44 41 39 40 40 41 42 42 43 42 41 40 39 40 40 41 42 42 43 44 47 45 44 42 40 41 35 32 30 28 28 27 26 26 28 28 27 25 25 26 26 27
42 41 42 42 42 40 39 41 42 42 43 43 40 39 40 41 42 43 41 42 45 46 46 47 43 41 40 39 35 32 29 27 26 26 26 27 27 27 26 26 26 26 26 26
41 41 41 41 42 43 44 44 44 44 43 42 41 42 42 43 45 47 46 45 48 48 45 44 43 41 38 35 33 30 28 27 26 26 26 26 26 26 26 27 26 26 26 26
41 41 41 41 41 41 42 43 42 42 42 41 41 41 41 40 39 39 40 45 45 47 43 42 41 40 37 35 33 31 29 28 28 28 28 28 28 27 27 27 27 27 27 26
43 44 43 43 43 43 42 43 42 42 41 42 42 44 44 44 45 44 44 47 45 46 42 42 41 39 37 34 33 32 31 30 30 30 29 28 28 27 26 26 26 26 26 26
44 44 45 45 44 45 44 45 44 43 43 42 43 45 47 45 42 43 41 43 43 42 42 42 41 39 36 34 33 31 31 30 29 29 28 27 27 26 25 25 26 26 25 26
43 43 43 47 45 46 44 45 41 42 43 44 44 44 45 45 44 45 44 43 43 41 40 40 40 38 36 34 32 31 31 29 27 27 26 26 26 25 25 25 25 25 26 26
46 46 46 44 46 47 46 46 46 45 45 43 43 43 43 42 42 41 41 41 40 40 39 39 38 36 35 33 31 30 29 28 28 27 27 26 26 26 25 25 25 26 27 27
42 43 43 43 44 45 45 44 45 45 43 43 42 42 41 40 40 40 40 39 39 38 37 36 36 36 34 33 31 30 30 29 29 28 28 27 26 26 26 26 27 27 28 27
Wind_Direction
267 273 263 278 217 205 248 250 246 248 249 259 261 253 251 255 264 281 298 310 319 325 327 328 328 323 317 308 297 287 277 266 262 265 267 273 278 290 300 314 339 94 94 71
273 268 285 259 260 217 214 214 250 250 252 269 274 247 241 243 258 276 304 315 319 322 326 328 325 326 319 311 305 295 281 275 268 266 269 271 270 281 290 302 321 61 120 129
276 285 272 238 272 254 240 218 220 249 254 261 262 267 240 243 256 277 327 322 316 320 321 323 327 326 320 313 310 306 291 280 278 272 266 268 266 271 278 285 297 324 101 126
257 270 247 300 304 278 271 251 222 225 229 258 270 231 337 328 284 308 322 322 323 321 322 323 322 324 324 320 309 311 305 286 280 278 276 266 261 267 271 278 282 285 299 319
263 267 269 313 305 288 272 258 277 262 265 281 289 283 311 314 308 312 318 322 324 325 326 325 321 321 318 320 314 307 305 298 284 277 271 266 266 262 269 272 274 279 286 293
262 262 267 298 292 289 274 259 304 279 266 296 286 272 271 299 306 317 323 324 324 320 326 325 323 321 321 315 316 308 298 300 300 271 268 267 269 265 267 272 270 273 281 284
265 264 269 307 295 277 265 275 296 277 331 326 331 293 287 302 309 316 320 320 324 325 324 325 325 325 323 320 313 307 297 283 283 287 280 275 270 269 270 274 271 275 277 283
274 279 273 312 290 278 280 290 315 295 323 311 348 347 318 308 302 307 317 321 325 325 324 325 325 323 321 319 319 315 316 304 302 296 293 286 279 276 272 273 266 274 280 283
270 272 296 302 286 294 296 300 297 266 328 350 338 333 320 312 312 316 319 324 325 320 322 323 324 326 323 322 323 323 320 320 301 294 293 290 287 282 273 274 269 272 282 284
287 285 294 300 296 293 296 301 299 315 351 354 344 328 324 329 328 315 319 327 328 329 331 328 331 328 324 322 326 325 326 327 324 315 297 300 294 292 281 279 280 280 286 290
292 293 293 303 302 293 289 293 302 315 332 334 322 328 316 319 319 310 319 327 332 334 335 335 330 327 326 321 324 327 328 327 331 331 332 322 316 302 297 294 286 284 287 295
295 309 299 294 305 311 297 291 295 297 295 302 324 329 322 328 325 320 320 327 334 337 337 334 329 326 331 329 328 330 326 324 323 330 335 340 346 350 346 330 326 321 309 307
303 304 307 314 309 312 302 304 305 304 303 294 315 324 321 320 324 325 329 333 334 336 338 340 339 335 335 341 343 344 346 345 349 340 337 336 343 343 354 9 16 17 18 16
307 303 301 310 307 306 299 293 295 306 318 317 313 324 329 328 328 336 339 341 338 338 341 341 341 338 339 340 348 353 357 359 360 360 359 355 357 358 1 5 7 12 16 21
309 311 297 291 293 301 300 295 289 295 304 306 317 321 329 326 332 347 350 349 348 340 340 340 338 335 337 346 347 349 351 358 4 5 6 10 12 13 14 19 19 21 23 24
297 306 303 301 302 299 299 295 292 293 301 309 303 315 326 325 332 342 346 344 343 339 335 337 335 331 333 340 349 353 357 357 1 3 8 13 15 19 22 23 26 23 20 20
299 292 296 295 294 301 303 301 292 290 293 299 300 305 315 320 327 333 334 339 343 342 338 333 334 333 334 336 343 343 345 348 352 359 4 10 14 20 23 23 24 20 17 19
298 298 304 304 290 290 294 298 301 299 297 304 307 304 313 315 320 325 328 329 338 341 337 336 333 340 337 338 345 346 344 347 352 357 3 5 8 11 14 14 15 17 16 15
326 307 299 287 287 295 297 296 296 304 305 308 305 305 313 312 318 321 322 326 326 323 320 326 332 338 339 338 348 351 350 351 351 354 359 1 1 1 3 6 7 6 6 6
321 332 330 315 306 295 283 290 290 298 302 304 308 311 312 310 314 316 322 328 322 320 323 326 334 339 341 344 350 352 351 351 353 354 354 353 354 354 355 356 357 356 356 357
326 332 332 327 323 321 319 317 317 316 317 317 314 311 311 312 314 313 315 320 324 324 329 333 335 337 343 345 348 348 348 349 349 348 347 349 350 350 349 348 348 347 348 349
327 330 328 329 331 333 333 333 334 334 333 334 330 329 328 331 335 339 339 331 331 330 334 336 338 339 339 340 337 336 336 336 336 336 335 334 335 336 337 338 338 339 341 343
321 319 320 321 322 324 327 329 332 334 334 331 328 325 322 324 325 328 328 330 331 331 332 332 334 335 336 335 333 332 332 331 330 331 331 332 333 334 335 337 339 340 340 341
323 324 322 321 320 319 325 324 325 326 325 328 327 323 322 324 328 328 330 330 330 331 331 328 328 332 332 332 333 333 333 334 333 334 335 336 335 336 335 335 335 337 338 339
328 328 328 321 320 323 325 325 325 325 325 326 325 325 324 324 323 323 326 328 328 330 332 333 332 331 332 333 336 336 336 338 338 338 338 339 338 338 337 337 337 337 336 338
323 323 326 327 323 323 324 324 320 323 322 324 327 327 327 327 327 327 329 329 331 333 333 333 334 335 336 338 339 340 341 342 340 339 340 339 338 338 338 337 335 332 332 333
331 330 328 328 330 330 329 327 322 323 327 327 327 330 331 333 333 332 332 331 331 332 333 335 335 336 337 337 339 339 339 339 338 338 337 336 338 338 335 333 333 332 331 332